Back to catalog

KUIPER-00598

AliveCommunicationsLEO
NORAD 69768·PAYLOAD·🇺🇸 United States

Launched Jul 2, 2026 from Cape Canaveral Space Force Station

Loading…

Next Passes (next 24 hours)

TLE

FreshSource: CelesTrak SupGP

Epoch: Sep 14, 2026, 17:22 UTC

1 69768C 26151F   26257.72372685  .00000127  00000+0  16642-4 0  2572
2 69768  51.8984 252.2422 0000718 113.0776 175.5906 14.79906630    12

Track KUIPER-00598 in real time with AllMySat

Download on the App Store